Location: Auckland
(36.8670°S, 174.7670°E)
Time: 08:47:39
(UTC+13:00)

Timation 1 Rocket - Pass Details

Date: 24 January 2019
Orbit: 901 x 906 km, 70.0° (Epoch: 21 October)

Event Time Altitude Azimuth Distance (km) Brightness Sun altitude
Rises 23:22:00 0° 207° (SSW) 3,565 8.8 -26.0°
Reaches altitude 10° 23:24:32 10° 209° (SSW) 2,616 7.8 -26.3°
Maximum altitude 23:30:32 67° 290° (WNW) 984 4.4 -26.9°
Enters shadow 23:31:18 61° 331° (NNW) 1,030 4.4 -27.0°
